AMAZONAS 3 (39078 NORAD) Tracking and Keplerian Element Data

This shows tracking and keplerian element data for the satellite.

Feedback or suggestion? Click here.




ElementValue
Catalog39078
NameAMAZONAS 3
Epoch Orbit2114
Epoch Day315.03006552
Epoch Year2018
RAAN196.7682
Inclination0.0264
Eccentricity0.0004711
Argument of Perigee28.8851
Mean Anonmoly134.3347
Mean Motion1.00273956
Decay Rate-2.86E-06
L11 39078U 13006A 18315.03006552 -.00000286 00000-0 00000+0 0 9992
L22 39078 0.0264 196.7682 0004711 28.8851 134.3347 1.00273956 21141

Live tracking and technical data element details for AMAZONAS 3 (NORAD 39078). AMAZONAS 3 can be tracked NOW for your location showing map with azimuth and elevation plus other details from your city location.

Track the satellite on the map from your city or location and see movement details for azimuth, elevation, latitude, longitude, range, height, and movement on the map or in text.







IsCatalogInMostPopularTable: catalog: 39078, numindb: 110
Update: records affected: 1



GetName: 39078 AMAZONAS 3

Hit Count: updated at: Mon, 12 Nov 2018 17:43:08 GMT